Wind_Speed
34 36 35 34 35 38 40 41 41 39 37 35 38 36 37 36 36 37 31 34 33 34 33 30 26 26 24 25 26 23 19 17 18 24 25 24 19 15 18 16 18 22 15 20 22 16 19 25 18 28 35 27 19 15
28 35 38 36 36 35 37 38 38 39 36 37 37 39 38 35 34 34 36 32 31 34 31 26 25 21 23 24 25 24 25 21 10 12 9 7 20 17 21 8 21 19 27 20 18 20 27 19 19 23 25 26 18 14
21 27 33 34 36 34 32 34 35 34 35 34 35 40 40 37 35 38 38 35 34 38 38 38 28 22 24 24 22 31 30 26 29 32 31 18 22 15 21 24 17 21 20 24 21 25 28 29 29 19 16 17 16 17
12 16 24 23 29 30 29 30 32 34 33 31 31 31 36 38 35 34 38 38 34 38 45 45 23 24 19 23 28 29 28 28 24 25 24 27 30 17 18 21 20 19 16 20 25 28 32 35 31 26 26 17 17 15
24 21 19 17 22 23 26 28 27 29 31 27 27 28 28 28 30 33 38 36 37 37 25 25 29 22 23 26 26 24 26 25 22 27 29 31 30 27 21 21 23 21 22 24 26 16 10 10 19 15 16 15 16 10
27 25 24 23 22 20 23 26 25 30 29 25 24 25 24 27 32 34 44 43 41 51 36 27 27 26 19 22 26 23 26 20 19 24 27 33 32 24 8 21 23 13 11 11 13 11 12 8 7 8 10 12 13 12
26 26 25 24 22 21 20 21 23 25 25 23 24 26 27 26 31 32 24 36 28 23 19 22 23 14 16 26 29 26 27 19 22 28 39 37 32 25 24 22 5 3 4 7 11 16 12 9 13 15 14 14 14 13
25 25 24 21 18 16 14 17 18 20 23 23 24 27 35 27 29 29 21 15 16 18 16 13 16 24 26 10 18 20 19 14 22 30 26 24 23 27 25 26 19 12 12 10 11 15 16 16 15 16 17 19 21 20
27 27 27 28 27 24 22 19 21 23 26 26 23 21 25 26 25 20 17 13 12 16 11 15 21 24 8 9 16 16 14 20 10 9 14 23 19 12 16 12 9 10 11 11 13 17 19 21 24 25 25 24 22 22
30 31 30 29 29 27 24 22 20 17 17 18 17 14 15 13 12 13 12 11 7 8 17 23 22 21 22 15 16 11 11 8 3 4 3 5 9 16 12 8 9 11 13 15 18 18 24 29 29 31 30 30 27 27
23 25 30 29 28 26 20 16 14 15 17 20 22 19 19 18 16 13 8 7 7 9 17 19 15 21 20 10 12 5 7 5 2 4 5 4 9 10 14 12 12 13 17 20 23 22 20 27 27 28 28 25 24 24
21 25 24 22 20 19 20 18 14 10 11 11 12 14 15 13 6 6 6 6 8 10 10 9 10 15 15 4 5 4 4 6 3 4 5 5 7 8 6 7 9 10 12 14 15 17 19 19 18 20 18 15 14 15
21 23 24 21 27 26 21 12 16 13 15 14 14 12 13 12 9 8 11 6 10 8 11 9 6 9 10 5 3 4 3 3 2 2 3 5 7 1 4 6 9 11 11 9 9 8 7 10 13 16 18 15 14 17
19 18 19 16 15 15 17 18 21 21 7 5 4 7 3 5 8 10 15 15 16 12 12 10 9 5 9 5 3 2 3 3 2 3 4 3 2 1 4 7 8 8 8 7 8 6 7 13 16 18 16 17 16 19
10 10 10 8 8 7 5 5 7 2 1 2 4 4 5 9 9 9 10 11 12 14 14 14 11 7 11 4 4 4 5 3 3 4 4 2 4 3 3 3 2 4 7 8 9 8 9 11 11 12 14 13 13 10
4 4 4 4 5 5 6 7 7 7 4 3 2 3 6 9 9 11 10 9 11 16 19 15 9 5 5 4 5 5 3 3 6 3 3 3 3 4 5 9 8 8 9 11 12 12 11 10 9 10 10 10 11 9
3 2 2 1 3 8 6 4 3 3 3 3 2 2 6 7 8 8 9 9 12 18 22 11 7 5 4 5 6 4 6 8 10 9 9 11 15 18 16 12 10 12 15 14 12 12 12 11 10 12 11 9 8 8
11 10 7 4 3 7 8 4 2 1 2 6 6 8 7 3 5 8 8 10 12 15 20 14 11 13 8 9 9 5 3 5 10 12 15 13 16 14 10 11 10 13 14 12 10 10 9 8 8 9 10 10 11 10
14 14 13 11 8 8 9 3 0 0 3 5 5 3 3 4 3 5 9 14 16 17 18 21 11 15 19 18 13 12 16 17 20 19 17 16 12 9 9 8 7 10 12 11 9 8 8 8 7 7 7 7 7 7
23 22 21 20 18 16 11 5 6 8 7 8 10 9 8 10 12 9 8 11 14 21 25 26 27 22 17 14 13 16 21 21 17 17 10 7 7 8 9 10 11 12 12 11 9 8 8 8 7 7 6 5 5 5
20 22 23 22 21 19 17 13 13 9 9 12 11 10 10 12 10 11 11 10 11 16 18 21 22 23 24 24 20 19 21 20 14 13 9 10 11 10 8 10 13 15 14 11 10 9 9 8 7 6 5 5 5 5
13 15 15 15 15 15 15 16 12 9 8 9 11 11 8 5 5 4 4 5 8 8 9 10 12 16 19 20 20 23 13 12 7 7 11 13 13 14 16 17 14 14 13 12 10 9 9 8 7 7 6 5 5 4
8 9 9 9 7 7 7 8 8 7 5 2 3 3 4 3 3 4 2 2 5 4 6 6 8 11 13 16 20 20 17 13 14 15 15 14 13 12 13 14 13 10 9 9 10 9 9 8 8 7 6 6 5 5
3 3 3 3 6 5 5 4 4 4 4 4 4 3 5 4 3 5 5 4 5 8 8 8 10 12 11 7 11 19 20 19 16 17 17 17 15 14 13 12 10 9 9 8 8 8 8 8 8 8 7 6 6 6
3 2 2 1 1 1 2 2 3 4 3 1 4 4 4 3 3 3 4 6 8 7 9 12 14 10 7 8 8 13 18 19 21 20 20 18 18 16 14 11 10 10 10 9 8 9 8 8 8 8 8 7 7 7
5 6 4 3 3 2 2 2 0 3 6 3 1 2 3 6 5 3 2 4 5 3 4 6 7 10 9 9 10 10 12 16 19 20 19 18 16 14 12 11 11 11 10 10 10 10 10 9 9 9 8 7 7 9
10 9 7 3 1 2 2 2 3 3 1 3 3 2 2 0 1 1 2 9 10 9 11 11 9 8 7 8 11 13 13 13 13 13 14 14 14 13 12 12 12 12 12 12 11 11 9 9 10 9 8 8 9 9
12 12 10 7 7 9 9 7 7 5 7 3 4 1 1 0 3 12 18 19 19 18 16 16 16 14 12 10 9 10 11 9 8 8 10 11 11 12 13 14 14 13 12 12 11 10 11 12 10 9 9 9 9 10
19 15 13 10 11 8 12 9 7 7 8 10 11 12 12 13 16 18 17 16 16 16 15 13 12 12 13 14 12 9 8 7 6 5 7 8 10 10 10 11 12 11 11 11 11 12 12 11 11 10 10 10 10 10
16 19 17 12 10 8 13 11 9 11 8 7 6 7 5 8 11 13 16 17 17 16 14 13 12 10 8 10 10 10 11 11 7 6 5 5 6 7 8 10 12 12 12 13 13 13 13 12 12 11 10 10 10 10
19 19 17 17 13 9 9 7 9 10 9 8 10 9 8 8 8 7 7 11 12 11 11 10 9 8 7 8 10 10 13 14 12 11 10 9 8 8 8 10 10 12 14 13 13 13 13 12 11 10 10 10 10 10
23 20 19 17 14 8 12 12 7 7 2 4 3 4 7 4 5 8 9 9 11 10 9 8 7 6 5 5 8 13 15 16 16 15 14 14 12 10 9 8 9 10 11 12 12 12 11 10 10 11 10 10 11 11
21 20 16 9 5 9 10 12 8 5 2 2 5 4 9 6 6 9 11 10 10 10 10 9 6 6 5 6 7 10 13 16 17 17 16 14 11 9 9 8 8 9 9 10 10 9 9 10 11 11 12 11 11 10
Wind_Direction
255 245 236 231 229 228 227 225 225 225 223 220 217 213 212 214 217 223 229 234 236 243 251 254 256 258 262 261 267 271 283 264 249 246 252 257 252 232 241 239 229 225 211 216 221 229 259 269 261 230 267 267 274 277
256 239 227 224 222 221 221 220 219 220 218 215 217 208 208 210 215 222 231 231 238 242 252 255 257 255 254 261 262 256 253 246 219 218 214 266 236 228 231 224 235 232 226 227 225 235 245 248 258 278 265 257 250 260
256 228 215 215 213 213 214 213 212 213 214 212 215 215 211 217 217 220 227 236 233 239 252 255 253 267 265 262 263 255 251 263 263 268 282 282 306 241 217 227 230 258 257 245 244 249 268 271 254 231 233 262 269 250
95 157 182 190 199 202 203 202 205 207 208 210 208 213 216 213 213 218 222 231 237 241 242 252 249 255 272 256 247 248 252 264 270 273 274 280 278 292 236 241 245 253 251 253 267 271 283 285 232 227 260 251 257 252
84 109 136 150 170 180 185 186 190 196 199 203 203 206 206 213 217 222 223 233 240 239 245 256 251 265 260 249 245 245 258 254 249 252 261 274 277 290 247 253 253 257 257 257 265 274 318 284 215 216 229 241 252 245
80 90 120 140 148 162 172 188 208 184 186 194 203 199 199 206 210 211 225 224 238 242 236 255 268 267 253 265 251 251 243 242 245 257 262 276 277 265 236 255 266 273 259 262 260 236 248 251 234 240 233 241 236 227
82 91 98 105 114 126 136 149 160 169 177 189 194 188 193 204 210 219 225 217 205 221 248 265 275 284 258 258 241 237 229 236 240 244 256 277 256 258 238 245 215 191 257 236 214 217 231 240 225 219 231 227 219 222
75 82 90 94 103 113 140 151 155 175 188 176 175 192 193 196 216 203 198 182 203 226 238 255 268 281 291 205 194 198 215 234 255 251 257 252 247 229 228 239 253 252 237 229 228 231 231 232 238 241 239 240 243 244
81 81 89 100 107 109 104 115 128 135 142 145 154 161 162 173 180 175 176 181 201 218 232 259 275 298 336 209 193 192 216 217 230 239 207 202 183 191 217 217 205 232 244 251 258 264 262 261 255 251 247 244 246 245
80 83 84 88 92 94 98 106 115 122 122 128 143 147 146 151 154 169 181 200 208 238 244 262 270 273 294 298 189 180 170 147 234 231 183 179 179 179 183 223 243 254 264 275 281 280 267 263 261 259 263 263 255 243
82 86 80 92 97 86 92 100 115 124 134 144 148 144 145 155 168 179 193 210 216 250 273 278 264 259 267 295 217 164 143 136 226 188 177 162 212 211 229 238 258 272 281 284 281 279 265 271 269 267 277 277 256 248
91 71 77 77 83 87 79 80 76 123 134 148 156 141 140 156 164 178 207 204 220 239 248 299 263 256 269 171 126 144 154 193 214 187 162 177 153 179 219 252 275 286 291 283 279 275 263 255 255 266 276 275 270 250
83 79 84 97 72 73 80 96 89 102 142 135 142 151 161 182 191 201 205 207 205 221 196 183 157 115 135 113 131 155 171 198 203 161 130 133 143 180 264 289 302 300 303 306 289 277 259 250 250 252 256 255 249 237
79 83 86 87 76 69 60 69 103 118 49 53 122 201 203 191 212 216 219 230 215 211 181 150 158 143 151 142 135 150 168 168 162 176 134 96 102 7 325 304 286 291 301 301 295 284 249 240 243 250 264 260 291 279
83 74 75 64 46 75 89 27 15 346 252 214 215 233 232 215 190 186 185 197 199 179 175 168 172 170 165 165 181 186 187 187 144 92 54 20 2 328 313 341 319 346 3 345 334 314 291 276 261 255 259 262 276 291
123 127 81 61 66 8 321 295 304 309 260 235 243 168 144 162 170 158 151 157 168 179 160 164 184 170 183 195 197 197 181 139 118 351 291 264 284 347 320 312 352 338 315 315 320 307 293 288 261 243 242 254 261 266
248 243 326 5 56 28 15 1 283 240 221 217 194 256 191 167 168 172 177 163 162 179 183 186 192 189 205 222 215 207 235 270 288 289 280 275 285 292 296 288 290 300 302 305 304 296 288 276 258 249 251 271 248 249
259 264 270 251 305 338 5 27 66 62 103 120 102 88 99 116 210 215 203 202 195 196 197 201 208 206 207 217 217 271 260 287 292 303 306 293 287 285 269 265 270 281 289 293 297 298 291 285 271 262 257 254 252 247
249 254 260 266 273 308 333 309 126 147 209 187 165 97 43 1 320 273 252 231 222 217 216 221 229 232 236 247 264 280 292 291 290 294 294 294 272 259 259 262 270 280 287 285 290 289 284 279 271 260 252 246 239 238
254 256 260 267 277 288 299 261 261 284 261 240 240 251 280 306 306 292 266 241 236 233 229 232 239 244 257 267 273 279 286 283 280 286 265 295 280 274 278 282 283 281 278 277 286 278 270 265 259 253 241 233 231 223
258 259 262 265 269 272 273 268 265 271 256 252 251 259 273 287 277 277 277 261 232 232 243 252 254 253 256 259 265 271 270 263 283 237 236 272 287 288 290 301 288 274 271 273 272 266 258 249 239 233 227 218 221 219
259 254 252 256 260 264 262 249 239 243 255 256 268 278 280 274 286 294 292 246 253 272 280 267 257 254 252 248 246 249 264 276 276 250 255 266 272 282 284 294 290 276 264 257 254 247 244 237 232 228 218 206 203 207
269 253 241 242 240 231 240 241 233 237 224 224 249 273 279 285 281 272 258 302 312 304 305 290 288 280 269 258 240 235 241 261 265 264 269 275 281 281 286 292 293 274 251 240 236 239 235 229 223 216 211 208 218 235
253 225 218 215 198 194 209 205 197 206 221 240 270 264 270 269 244 258 227 197 247 272 273 275 278 295 273 252 249 235 239 254 269 261 262 270 273 277 281 281 275 257 239 235 238 233 225 221 217 216 219 224 233 243
118 94 84 84 75 112 170 172 187 182 150 254 290 263 236 239 229 263 279 264 291 293 277 264 264 277 243 239 240 230 230 238 250 259 260 258 268 272 272 269 261 255 248 242 235 226 222 219 216 215 217 224 235 253
77 52 52 46 46 62 82 59 83 284 293 308 215 241 257 281 270 208 191 244 270 278 314 313 286 256 249 253 263 267 265 259 256 251 253 258 254 253 256 256 252 245 235 229 226 222 218 218 219 217 217 229 252 272
55 40 22 8 312 270 280 297 307 316 348 59 33 3 14 18 128 162 180 299 295 289 299 298 298 300 304 296 275 267 271 274 264 257 251 247 249 246 249 249 246 242 237 229 221 217 216 223 220 223 233 254 270 276
43 39 35 39 87 92 78 79 67 68 38 5 348 263 251 44 297 305 303 302 305 301 294 289 284 282 283 288 299 281 280 285 279 263 250 242 242 246 245 243 243 241 227 209 211 217 223 221 224 232 248 258 264 269
38 53 42 69 83 66 48 34 354 319 285 289 294 295 292 291 291 287 295 301 304 306 301 295 288 281 264 256 263 266 254 270 291 274 254 243 242 242 241 238 237 236 223 217 218 219 220 224 232 239 250 263 268 270
2 8 17 25 44 39 25 355 352 358 338 319 309 331 331 297 303 307 307 306 299 296 301 294 283 287 271 243 241 236 231 229 248 270 275 271 267 259 250 242 238 233 226 223 222 223 227 230 234 247 260 267 272 273
349 336 328 324 326 340 343 4 6 340 315 304 299 309 314 313 314 321 314 308 316 310 306 293 280 277 269 240 225 221 218 224 240 251 260 273 281 277 266 255 246 240 233 225 223 224 225 232 243 255 264 269 273 276
357 349 325 302 290 261 281 299 319 338 323 316 42 49 36 93 40 19 7 348 350 348 335 309 276 263 259 247 232 221 224 228 236 247 257 273 281 277 269 256 240 227 218 215 214 218 225 236 251 261 267 273 277 279
351 355 348 314 285 230 252 280 281 277 298 155 147 67 19 353 22 359 347 345 347 357 5 357 321 272 255 240 242 238 239 244 251 259 267 272 270 259 247 235 223 212 209 209 214 225 240 251 260 267 272 273 275 277
Height
2781 2785 2791 2798 2806 2814 2823 2832 2842 2850 2858 2866 2874 2882 2889 2896 2903 2906 2913 2917 2921 2924 2926 2930 2934 2936 2939 2941 2943 2945 2947 2947 2949 2950 2952 2948 2945 2943 2944 2943 2945 2950 2953 2955 2957 2960 2957 2953 2956 2956 2954 2955 2957 2957
2763 2768 2777 2787 2796 2805 2814 2823 2833 2842 2851 2859 2867 2875 2883 2890 2897 2902 2906 2912 2917 2919 2920 2923 2927 2931 2932 2935 2937 2937 2939 2942 2940 2943 2943 2936 2937 2935 2936 2936 2939 2945 2945 2947 2949 2945 2945 2945 2947 2949 2949 2951 2951 2951
2744 2752 2765 2777 2788 2798 2807 2817 2826 2836 2845 2853 2861 2869 2877 2884 2891 2897 2902 2905 2911 2914 2915 2916 2919 2925 2925 2927 2931 2930 2931 2935 2935 2938 2938 2937 2932 2932 2929 2930 2934 2935 2938 2938 2941 2939 2940 2940 2941 2943 2944 2946 2945 2946
2742 2750 2762 2774 2784 2795 2804 2813 2822 2831 2840 2849 2856 2863 2871 2878 2886 2892 2894 2898 2906 2909 2908 2906 2914 2915 2919 2918 2919 2921 2925 2928 2930 2931 2933 2932 2930 2927 2926 2928 2928 2931 2931 2932 2931 2931 2931 2927 2928 2935 2938 2940 2940 2940
2761 2764 2771 2778 2786 2794 2803 2812 2820 2828 2837 2845 2852 2860 2866 2873 2881 2886 2890 2894 2899 2904 2900 2902 2907 2909 2909 2910 2912 2913 2916 2920 2924 2926 2925 2924 2924 2924 2921 2922 2920 2923 2924 2926 2925 2928 2925 2921 2922 2926 2931 2934 2936 2937
2777 2778 2781 2785 2791 2799 2805 2812 2816 2825 2835 2843 2849 2854 2863 2870 2874 2882 2881 2885 2890 2894 2896 2900 2901 2900 2903 2902 2904 2906 2910 2913 2915 2917 2917 2915 2916 2921 2917 2915 2916 2916 2918 2919 2919 2921 2921 2923 2925 2928 2931 2932 2934 2935
2791 2791 2793 2796 2799 2804 2809 2815 2821 2828 2835 2842 2848 2854 2861 2865 2871 2876 2877 2880 2888 2893 2896 2896 2891 2890 2892 2892 2894 2899 2903 2905 2908 2908 2905 2906 2909 2912 2912 2911 2914 2915 2915 2916 2917 2917 2918 2920 2922 2924 2927 2928 2930 2932
2804 2803 2804 2806 2809 2813 2816 2820 2825 2830 2834 2837 2846 2852 2855 2863 2867 2871 2876 2882 2886 2890 2894 2891 2886 2888 2888 2886 2888 2893 2898 2900 2902 2902 2899 2897 2901 2905 2907 2907 2911 2912 2912 2913 2914 2914 2916 2917 2919 2921 2923 2924 2926 2928
2816 2815 2816 2817 2819 2821 2824 2827 2830 2832 2836 2842 2847 2853 2858 2864 2869 2873 2878 2882 2885 2891 2888 2886 2885 2885 2883 2882 2886 2889 2892 2895 2896 2894 2893 2896 2895 2897 2903 2906 2907 2908 2909 2910 2910 2911 2912 2913 2914 2914 2916 2918 2920 2922
2828 2827 2827 2828 2829 2831 2833 2835 2838 2842 2845 2850 2855 2860 2863 2868 2872 2877 2880 2882 2884 2884 2882 2881 2885 2884 2883 2881 2882 2888 2888 2890 2892 2893 2890 2890 2891 2897 2900 2902 2904 2904 2905 2905 2905 2906 2906 2905 2906 2907 2909 2910 2912 2915
2839 2839 2839 2839 2840 2841 2842 2844 2846 2848 2850 2853 2856 2860 2864 2869 2873 2876 2878 2880 2881 2881 2879 2878 2879 2881 2882 2882 2882 2884 2885 2889 2890 2892 2892 2892 2893 2895 2898 2900 2901 2900 2900 2900 2898 2898 2897 2897 2898 2900 2902 2903 2904 2907
2849 2848 2847 2848 2849 2849 2849 2849 2851 2852 2855 2857 2861 2864 2867 2870 2873 2875 2875 2878 2877 2877 2876 2875 2877 2878 2879 2880 2881 2885 2886 2889 2889 2890 2891 2891 2892 2895 2896 2897 2896 2896 2896 2894 2893 2892 2890 2891 2893 2895 2897 2897 2898 2899
2857 2856 2855 2855 2855 2855 2855 2855 2855 2855 2857 2860 2863 2865 2867 2870 2870 2869 2870 2871 2873 2873 2874 2875 2877 2877 2880 2881 2884 2885 2886 2887 2888 2887 2888 2889 2890 2892 2892 2893 2893 2892 2891 2890 2888 2888 2888 2888 2890 2892 2894 2895 2895 2895
2862 2861 2861 2862 2861 2861 2861 2861 2861 2862 2864 2864 2864 2864 2865 2864 2864 2864 2866 2869 2871 2871 2873 2875 2877 2878 2879 2881 2882 2884 2886 2887 2888 2888 2889 2889 2890 2891 2891 2891 2891 2890 2889 2888 2889 2888 2887 2888 2888 2889 2890 2890 2890 2889
2865 2865 2865 2865 2865 2866 2865 2864 2864 2863 2863 2864 2864 2862 2861 2861 2863 2864 2864 2866 2868 2870 2873 2876 2880 2881 2882 2884 2885 2886 2886 2886 2886 2887 2888 2889 2890 2890 2890 2889 2889 2888 2887 2887 2886 2884 2885 2884 2884 2884 2885 2886 2887 2886
2867 2867 2867 2867 2867 2867 2865 2864 2863 2863 2862 2863 2862 2862 2862 2862 2863 2864 2865 2867 2868 2870 2873 2877 2878 2879 2880 2881 2881 2881 2883 2884 2886 2886 2887 2887 2888 2888 2888 2888 2885 2885 2886 2884 2883 2882 2882 2881 2880 2882 2882 2883 2884 2884
2866 2866 2866 2866 2866 2866 2865 2864 2863 2862 2862 2861 2862 2862 2863 2863 2864 2865 2866 2868 2869 2872 2873 2875 2875 2877 2878 2878 2878 2879 2881 2883 2883 2884 2884 2884 2884 2884 2883 2883 2882 2882 2883 2881 2880 2879 2878 2878 2878 2879 2879 2880 2881 2881
2863 2864 2864 2864 2864 2864 2864 2863 2863 2862 2862 2861 2861 2861 2862 2862 2863 2864 2865 2867 2869 2870 2872 2873 2874 2873 2874 2874 2876 2878 2879 2879 2879 2879 2879 2878 2878 2878 2878 2878 2878 2878 2878 2878 2877 2876 2875 2875 2875 2875 2876 2877 2878 2878
2860 2860 2861 2861 2862 2862 2862 2862 2862 2862 2862 2862 2862 2862 2862 2862 2862 2862 2862 2864 2866 2867 2869 2870 2871 2869 2871 2872 2874 2875 2874 2874 2874 2874 2874 2873 2873 2874 2874 2874 2873 2874 2874 2874 2873 2873 2872 2872 2872 2873 2873 2874 2875 2875
2855 2856 2857 2858 2859 2859 2860 2860 2860 2859 2859 2860 2860 2860 2860 2860 2859 2859 2860 2860 2860 2862 2863 2863 2863 2866 2868 2869 2869 2870 2870 2870 2869 2869 2870 2870 2870 2870 2870 2869 2870 2870 2870 2870 2870 2870 2869 2870 2870 2870 2871 2872 2873 2874
2847 2848 2850 2851 2853 2854 2855 2855 2855 2856 2855 2856 2856 2856 2857 2857 2856 2855 2856 2855 2856 2856 2857 2858 2860 2862 2861 2862 2863 2864 2864 2864 2863 2863 2865 2866 2866 2866 2865 2865 2865 2865 2866 2866 2866 2866 2867 2867 2868 2868 2869 2870 2871 2872
2842 2842 2843 2844 2846 2848 2849 2849 2851 2851 2853 2853 2852 2852 2852 2853 2853 2852 2852 2852 2853 2854 2854 2854 2854 2854 2854 2856 2857 2859 2860 2859 2859 2860 2861 2862 2862 2862 2862 2862 2861 2860 2860 2861 2862 2863 2864 2864 2865 2866 2867 2868 2869 2871
2837 2838 2839 2840 2842 2843 2845 2845 2846 2847 2849 2849 2850 2850 2850 2850 2850 2851 2851 2851 2851 2851 2850 2850 2850 2849 2849 2849 2850 2853 2855 2856 2856 2857 2858 2858 2858 2858 2858 2857 2856 2856 2856 2857 2858 2860 2861 2862 2863 2864 2865 2866 2868 2869
2835 2836 2837 2838 2839 2840 2842 2842 2843 2845 2845 2846 2847 2847 2848 2848 2849 2849 2849 2849 2848 2848 2848 2847 2846 2845 2845 2844 2845 2847 2850 2851 2852 2853 2854 2854 2855 2855 2855 2854 2854 2854 2854 2855 2857 2858 2859 2860 2861 2862 2864 2865 2866 2867
2837 2838 2839 2838 2839 2840 2840 2841 2842 2843 2843 2844 2844 2845 2845 2846 2846 2846 2846 2847 2846 2845 2844 2843 2843 2843 2842 2842 2842 2843 2844 2846 2847 2848 2849 2850 2850 2850 2850 2851 2851 2851 2852 2853 2854 2856 2857 2858 2859 2860 2862 2863 2864 2865
2836 2839 2840 2839 2839 2840 2840 2841 2841 2841 2842 2842 2842 2842 2843 2843 2844 2844 2845 2844 2843 2842 2841 2840 2839 2839 2839 2839 2840 2840 2840 2841 2841 2842 2843 2844 2844 2845 2846 2847 2848 2848 2849 2850 2852 2853 2854 2856 2857 2858 2860 2861 2862 2862
2840 2841 2840 2839 2838 2839 2839 2839 2840 2840 2840 2841 2841 2841 2841 2841 2842 2843 2843 2840 2840 2840 2839 2838 2838 2837 2836 2836 2836 2836 2836 2836 2836 2837 2838 2838 2839 2840 2842 2843 2844 2845 2846 2847 2849 2850 2852 2853 2855 2856 2857 2858 2859 2859
2843 2842 2840 2840 2839 2839 2839 2839 2840 2841 2841 2841 2841 2840 2840 2841 2841 2840 2838 2837 2836 2835 2834 2834 2834 2834 2834 2834 2833 2833 2833 2833 2833 2833 2834 2834 2835 2836 2837 2839 2840 2841 2842 2843 2845 2847 2849 2851 2852 2853 2854 2855 2855 2855
2843 2842 2842 2840 2840 2840 2840 2841 2841 2841 2840 2840 2839 2838 2839 2838 2837 2835 2835 2833 2832 2831 2829 2829 2828 2828 2828 2829 2830 2830 2831 2831 2831 2831 2831 2832 2832 2834 2834 2835 2836 2838 2839 2840 2842 2844 2846 2848 2849 2850 2851 2852 2852 2852
2845 2843 2842 2841 2840 2840 2840 2839 2838 2837 2836 2836 2836 2835 2835 2834 2833 2831 2830 2828 2826 2826 2825 2824 2824 2823 2823 2824 2825 2827 2828 2829 2829 2830 2830 2830 2831 2831 2832 2833 2834 2835 2836 2838 2839 2841 2842 2844 2845 2847 2847 2848 2848 2848
2845 2842 2842 2841 2840 2839 2837 2836 2836 2836 2834 2834 2833 2832 2831 2830 2829 2827 2826 2824 2823 2822 2821 2821 2821 2820 2820 2820 2822 2823 2825 2826 2827 2828 2828 2828 2829 2829 2829 2830 2830 2831 2833 2834 2836 2837 2839 2841 2842 2843 2844 2844 2844 2844
2842 2839 2836 2834 2834 2835 2833 2833 2833 2833 2833 2832 2831 2831 2830 2829 2828 2827 2825 2824 2822 2821 2819 2818 2818 2818 2818 2819 2819 2821 2822 2823 2824 2825 2825 2826 2826 2826 2826 2827 2827 2828 2830 2831 2833 2835 2836 2837 2838 2839 2840 2840 2841 2841
2839 2836 2833 2830 2827 2826 2828 2828 2829 2830 2830 2829 2829 2829 2829 2828 2827 2826 2825 2823 2822 2820 2818 2817 2817 2817 2816 2817 2817 2818 2819 2820 2821 2821 2822 2822 2822 2823 2823 2824 2825 2826 2828 2829 2831 2832 2834 2835 2835 2836 2836 2836 2837 2837